Location: Ch�teau-Arnoux
(44.0814°N, 6.0027°E)
Time: 01:58:22
(UTC+00:00)

Cosmos 1153 Rocket - Pass Details

Date: 15 November 2019
Orbit: 953 x 1006 km, 82.9° (Epoch: 07 December)

Event Time Altitude Azimuth Distance (km) Brightness Sun altitude
Rises 04:12:11 0° 182° (S) 3,626 7.5 -24.8°
Reaches altitude 10° 04:14:40 10° 181° (S) 2,680 6.8 -24.4°
Maximum altitude 04:20:47 80° 96° (E) 975 4.5 -23.3°
Drops below altitude 10° 04:26:55 10° 10° (N) 2,693 6.9 -22.2°
Sets 04:29:26 0° 10° (N) 3,645 7.6 -21.7°
